Tracking 19570 objects as of 21-Feb-2019
HD Live streaming from Space Station
objects crossing your sky now

COSMOS 1808

Track COSMOS 1808 now!
10-day predictions
COSMOS 1808 is classified as:


NORAD ID: 17239
Int'l Code: 1986-100A
Perigee: 974.4 km
Apogee: 1,024.7 km
Inclination: 82.9 °
Period: 105.0 minutes
Semi major axis: 7370 km
RCS: 2.275 m2 (large)
Launch date: December 17, 1986
Source: Commonwealth of Independent States (former USSR) (CIS)
Launch site: PLESETSK MISSILE AND SPACE COMPLEX (PKMTR)
aabbcc
Your satellite tracking list
Your tracking list is empty




NASA's NSSDC Master Catalog

Two Line Element Set (TLE):
1 17239U 86100A   19051.92406730 +.00000028 +00000-0 +13564-4 0  9997
2 17239 082.9381 344.7993 0034101 080.5136 346.3064 13.71995961610831
Source of the keplerian elements: AFSPC